Weather History for Sigonella, Italy

Change the Weather History Date:

Wednesday, May 2, 2012

  Actual Average Record
Temperature  
Mean Temperature 63 °F -  
Max Temperature 79 °F 79 °F 82 °F (2013)
Min Temperature 47 °F 54 °F 44 °F (1998)
Degree Days  
Heating Degree Days 2    
Growing Degree Days 13 (Base 50)    
Moisture  
Dew Point 52 °F    
Average Humidity 72    
Maximum Humidity 100    
Minimum Humidity 23    
Precipitation  
Precipitation 0.00 in 0.03 in - ()
Sea Level Pressure  
Sea Level Pressure 29.96 in    
Wind  
Wind Speed 6 mph ()    
Max Wind Speed 14 mph    
Max Gust Speed -    
Visibility 6.7 miles    
Events      
Averages and records for this station are not official NWS values.
T = Trace of Precipitation, MM = Missing Value Source: Averaged Metar Reports

Daily Weather History Graph

Daily Weather History Graph

Search for Another Location

Airport:

Trip Planner

Search our weather history database for the weather conditions in past years. The results will help you decide how hot, cold, wet, or windy it might be!

Date:

Astronomy

May. 02, 2012 Rise Set
Actual Time 6:03 AM CEST 7:51 PM CEST
Civil Twilight 5:35 AM CEST 8:19 PM CEST
Nautical Twilight 5:01 AM CEST 8:53 PM CEST
Astronomical Twilight 4:25 AM CEST 9:30 PM CEST
Moon 3:48 PM CEST 3:18 AM CEST
Length of Visible Light 14h 43m
Length of Day
13h 47m
Waxing Gibbous, 81% of the Moon is Illuminated
May 2
Waxing Gibbous
May 6
Full
May 12
Last Quarter
May 21
New
May 28
First Quarter

Hourly Weather History & Observations

Time (CEST) Temp. Windchill Dew Point Humidity Pressure Visibility Wind Dir Wind Speed Gust Speed Precip Events Conditions
12:55 AM 59.0 °F - 55.4 °F 88% 30.01 in 6.2 mi West 4.6 mph - N/A   Partly Cloudy
1:55 AM 51.8 °F - 51.8 °F 100% 30.01 in - West 4.6 mph - N/A   Clear
2:00 AM 53 °F - 53 °F 98% 30.02 in 7 mi West 4.6 mph - -  
2:55 AM 51.8 °F - 51.8 °F 100% 30.01 in - WNW 6.9 mph - N/A   Clear
3:55 AM 53.6 °F - 50.0 °F 88% 30.01 in - West 4.6 mph - N/A   Clear
4:55 AM 50.0 °F - 50.0 °F 100% 29.98 in - SW 4.6 mph - N/A   Clear
5:00 AM 50 °F - 50 °F 98% 29.99 in 7 mi SW 4.6 mph - -  
5:55 AM 48.2 °F - 48.2 °F 100% 29.98 in - West 4.6 mph - N/A   Clear
6:55 AM 46.4 °F 43.5 °F 46.4 °F 100% 29.98 in - West 5.8 mph - N/A   Clear
7:55 AM 53.6 °F - 50.0 °F 88% 30.01 in - West 5.8 mph - N/A   Clear
8:00 AM 54 °F - 50 °F 82% 30.02 in 9 mi West 5.8 mph - -  
8:55 AM 64.4 °F - 51.8 °F 64% 29.98 in - West 4.6 mph - N/A   Clear
9:55 AM 71.6 °F - 50.0 °F 46% 29.98 in - WNW 3.5 mph - N/A   Clear
10:55 AM 77.0 °F - 44.6 °F 32% 29.98 in - ENE 3.5 mph - N/A   Clear
11:00 AM 76 °F - 45 °F 23% 29.99 in 6 mi ENE 3.5 mph - -  
11:55 AM 80.6 °F - 50.0 °F 34% 29.98 in - ENE 8.1 mph - N/A   Clear
12:55 PM 77.0 °F - 50.0 °F 39% 29.95 in - East 10.4 mph - N/A   Clear
1:55 PM 77.0 °F - 50.0 °F 39% 29.95 in - ENE 10.4 mph - N/A   Clear
2:00 PM 77 °F - 51 °F 29% 29.96 in 6 mi ENE 10.4 mph - -  
2:55 PM 77.0 °F - 51.8 °F 41% 29.92 in 6.2 mi ENE 13.8 mph - N/A   Partly Cloudy
3:55 PM 75.2 °F - 48.2 °F 38% 29.92 in 6.2 mi ENE 13.8 mph - N/A   Partly Cloudy
4:55 PM 75.2 °F - 46.4 °F 36% 29.92 in 6.2 mi ENE 13.8 mph - N/A   Partly Cloudy
5:00 PM 74 °F - 47 °F 27% 29.92 in 6 mi ENE 13.8 mph - -   Scattered Clouds
5:55 PM 71.6 °F - 53.6 °F 53% 29.92 in 6.2 mi East 11.5 mph - N/A   Partly Cloudy
6:55 PM 68.0 °F - 60.8 °F 78% 29.92 in - East 11.5 mph - N/A   Clear
7:55 PM 62.6 °F - 62.6 °F 100% 29.92 in - ESE 6.9 mph - N/A   Clear
8:00 PM 63 °F - 63 °F 100% 29.93 in 6 mi ESE 6.9 mph - -  
8:55 PM 59.0 °F - 59.0 °F 100% 29.92 in - ESE 2.3 mph - N/A   Clear
9:55 PM 59.0 °F - 59.0 °F 100% 29.92 in - North 4.6 mph - N/A   Clear
10:55 PM 57.2 °F - 57.2 °F 100% 29.92 in - SW 2.3 mph - N/A   Clear
11:00 PM 57 °F - 57 °F 98% 29.93 in 9 mi SW 2.3 mph - -  
11:55 PM 55.4 °F - 55.4 °F 100% 29.92 in - WNW 4.6 mph - N/A   Clear